This is the latest recevied weather packets stored in our database for station/object SP5EB-3. If no packets are shown the sender has not sent any weather packets the latest 1 day(s).
| Time | Temp. | Humidity | Pressure | Rain* | Wind** | Luminosity | Snow |
|---|---|---|---|---|---|---|---|
| 1778075833 | 27.78° C | 99% | 1003.9 hPa | - | - | - | - |
| 1778075523 | 27.78° C | 99% | 1004 hPa | - | - | - | - |
| 1778074284 | 27.22° C | 99% | 1003.7 hPa | - | - | - | - |
| 1778073044 | 26.67° C | 99% | 1003.8 hPa | - | - | - | - |
| 1778072735 | 26.67° C | 99% | 1003.6 hPa | - | - | - | - |
| 1778072426 | 26.67° C | 99% | 1003.5 hPa | - | - | - | - |
| 1778071496 | 25.56° C | 99% | 1003.5 hPa | - | - | - | - |
| 1778069331 | 23.89° C | 99% | 1004 hPa | - | - | - | - |
| 1778069022 | 23.89° C | 99% | 1003.9 hPa | - | - | - | - |
| 1778068403 | 23.89° C | 99% | 1003.7 hPa | - | - | - | - |
| 1778067785 | 23.89° C | 99% | 1003.7 hPa | - | - | - | - |
| 1778067476 | 24.44° C | 99% | 1003.7 hPa | - | - | - | - |
| 1778067167 | 24.44° C | 99% | 1003.8 hPa | - | - | - | - |
| 1778065620 | 23.89° C | 99% | 1003.6 hPa | - | - | - | - |
| 1778065311 | 23.89° C | 99% | 1003.6 hPa | - | - | - | - |
| 1778065002 | 23.89° C | 99% | 1003.6 hPa | - | - | - | - |
| 1778064692 | 23.89° C | 99% | 1003.5 hPa | - | - | - | - |
| 1778064383 | 23.89° C | 99% | 1003.5 hPa | - | - | - | - |
| 1778064074 | 23.89° C | 99% | 1003.6 hPa | - | - | - | - |
| 1778063765 | 23.33° C | 99% | 1003.6 hPa | - | - | - | - |
| 1778063147 | 23.33° C | 99% | 1003.7 hPa | - | - | - | - |
| 1778062837 | 22.78° C | 99% | 1003.6 hPa | - | - | - | - |
| 1778061911 | 22.22° C | 99% | 1003.6 hPa | - | - | - | - |
| 1778060984 | 21.67° C | 99% | 1003.7 hPa | - | - | - | - |
| 1778060058 | 21.67° C | 99% | 1003.6 hPa | - | - | - | - |
* Rain since midnight (hover to see other rain measurements)
** Current wind speed in m/s (hover to see current wind gust speed)